<< Return to Weather Page
Ft. Stewart, GA
on Thursday, May 3, 2012

Thursday
Previous Day Next Day
Daily Summary
 ActualAverageRecord
Temperature
Mean Temperature - -  
Max Temperature 87 °F 83 °F 97 °F (1990)
Min Temperature 60 °F 59 °F 50 °F (1999)
Cooling Degree Days 8    
Growing Degree Days22 (Base - )  
Moisture
Dew Point 64 °F   
Average Humidity 94    
Maximum Humidity 100    
Minimum Humidity 46    
Precipitation
Precipitation 0.00 in - - ()
Wind
Wind Speed 1 mph   
Max Wind Speed 13 mph   
Max Gust Speed -   
Visibility 4 miles   
Events Fog   
Averages and records for this station are not official NWS values.
Key: T is trace of precipitation, MM is missing value
Source: NWS Daily Summary
Seasonal Weather Averages
Time(EDT)TemperatureDew PointHumidity Pressure Visibility Wind DirectionWind SpeedGust SpeedPrecipitationEvents Conditions
12:55 AM 67.1 °F 66.7 °F 99% 30.14 in 10.0 miles Calm Calm - N/A   Clear
1:55 AM 64.8 °F 64.8 °F 100% 30.12 in 10.0 miles Calm Calm - N/A   Clear
2:16 AM 64.4 °F 64.4 °F 100% 30.12 in 2.0 miles Calm Calm - N/A   Clear
2:17 AM 64.4 °F 64.4 °F 100% 30.12 in 1.8 miles Calm Calm - N/A   Clear
2:18 AM 64.4 °F 64.4 °F 100% 30.12 in 1.5 miles Calm Calm - N/A   Clear
2:19 AM 64.4 °F 64.4 °F 100% 30.12 in 1.2 miles Calm Calm - N/A   Clear
2:22 AM 64.4 °F 64.4 °F 100% 30.12 in 1.2 miles Calm Calm - N/A   Clear
2:25 AM 64.4 °F 64.4 °F 100% 30.11 in 1.8 miles Calm Calm - N/A   Clear
2:26 AM 64.4 °F 64.4 °F 100% 30.11 in 2.0 miles Calm Calm - N/A   Clear
2:27 AM 64.4 °F 64.4 °F 100% 30.11 in 3.0 miles Calm Calm - N/A   Clear
2:33 AM 64.4 °F 64.4 °F 100% 30.11 in 7.0 miles Calm Calm - N/A   Clear
2:55 AM 64.9 °F 64.9 °F 100% 30.11 in 6.0 miles Calm Calm - N/A   Clear
2:59 AM 64.4 °F 64.4 °F 100% 30.11 in 2.5 miles Calm Calm - N/A   Clear
3:01 AM 64.4 °F 64.4 °F 100% 30.11 in 2.0 miles Calm Calm - N/A   Clear
3:05 AM 64.4 °F 64.4 °F 100% 30.11 in 2.0 miles Calm Calm - N/A   Clear
3:08 AM 64.4 °F 64.4 °F 100% 30.11 in 3.0 miles Calm Calm - N/A   Clear
3:55 AM 63.7 °F 63.7 °F 100% 30.09 in 10.0 miles Calm Calm - N/A   Clear
4:18 AM 62.6 °F 62.6 °F 100% 30.09 in 10.0 miles Calm Calm - N/A   Partly Cloudy
4:27 AM 62.6 °F 62.6 °F 100% 30.09 in 2.5 miles Calm Calm - N/A   Scattered Clouds
4:28 AM 62.6 °F 62.6 °F 100% 30.09 in 1.8 miles Calm Calm - N/A   Scattered Clouds
4:29 AM 62.6 °F 62.6 °F 100% 30.09 in 1.5 miles Calm Calm - N/A   Scattered Clouds
4:30 AM 62.6 °F 62.6 °F 100% 30.09 in 1.0 miles Calm Calm - N/A   Mist
4:31 AM 62.6 °F 62.6 °F 100% 30.09 in 1.0 miles Calm Calm - N/A   Mist
4:32 AM 62.6 °F 62.6 °F 100% 30.09 in 0.8 miles Calm Calm - N/A   Mist
4:33 AM 62.6 °F 62.6 °F 100% 30.09 in 0.8 miles Calm Calm - N/A   Mist
4:34 AM 62.6 °F 62.6 °F 100% 30.09 in 0.5 miles Calm Calm - N/A Fog Fog
4:54 AM 62.6 °F 62.6 °F 100% 30.09 in 0.8 miles Calm Calm - N/A   Mist
4:55 AM 62.4 °F 62.4 °F 100% 30.09 in 0.8 miles Calm Calm - N/A   Mist
4:58 AM 62.6 °F 62.6 °F 100% 30.09 in 1.0 miles Calm Calm - N/A   Mist
5:01 AM 62.6 °F 62.6 °F 100% 30.09 in 1.2 miles Calm Calm - N/A   Scattered Clouds
5:03 AM 62.6 °F 62.6 °F 100% 30.09 in 1.5 miles Calm Calm - N/A   Scattered Clouds
5:04 AM 62.6 °F 62.6 °F 100% 30.09 in 1.8 miles Calm Calm - N/A   Partly Cloudy
5:06 AM 62.6 °F 62.6 °F 100% 30.09 in 2.0 miles Calm Calm - N/A   Partly Cloudy
5:09 AM 62.6 °F 62.6 °F 100% 30.09 in 3.0 miles Calm Calm - N/A   Partly Cloudy
5:25 AM 62.6 °F 62.6 °F 100% 30.09 in 2.0 miles Calm Calm - N/A   Clear
5:26 AM 62.6 °F 62.6 °F 100% 30.09 in 1.8 miles Calm Calm - N/A   Clear
5:27 AM 62.6 °F 62.6 °F 100% 30.09 in 1.5 miles Calm Calm - N/A   Clear
5:29 AM 62.6 °F 62.6 °F 100% 30.09 in 1.2 miles Calm Calm - N/A   Clear
5:30 AM 62.6 °F 62.6 °F 100% 30.09 in 1.2 miles Calm Calm - N/A   Clear
5:31 AM 62.6 °F 62.6 °F 100% 30.09 in 1.0 miles Calm Calm - N/A   Clear
5:34 AM 62.6 °F 62.6 °F 100% 30.09 in 0.8 miles Calm Calm - N/A   Clear
5:39 AM 62.6 °F 62.6 °F 100% 30.09 in 0.8 miles Calm Calm - N/A   Clear
5:43 AM 62.6 °F 62.6 °F 100% 30.10 in 0.8 miles Calm Calm - N/A   Clear
5:46 AM 62.6 °F 62.6 °F 100% 30.10 in 1.0 miles Calm Calm - N/A   Clear
5:49 AM 62.6 °F 62.6 °F 100% 30.10 in 1.2 miles Calm Calm - N/A   Clear
5:52 AM 62.6 °F 62.6 °F 100% 30.10 in 1.5 miles Calm Calm - N/A   Clear
5:54 AM 62.6 °F 62.6 °F 100% 30.10 in 1.8 miles Calm Calm - N/A   Clear
5:55 AM 62.1 °F 62.1 °F 100% 30.10 in 2.0 miles Calm Calm - N/A   Clear
5:57 AM 62.6 °F 62.6 °F 100% 30.10 in 3.0 miles Calm Calm - N/A   Clear
6:03 AM 62.6 °F 62.6 °F 100% 30.11 in 2.5 miles Calm Calm - N/A   Clear
6:10 AM 62.6 °F 62.6 °F 100% 30.11 in 1.8 miles Calm Calm - N/A   Clear
6:11 AM 62.6 °F 62.6 °F 100% 30.11 in 1.5 miles Calm Calm - N/A   Clear
6:15 AM 62.6 °F 62.6 °F 100% 30.11 in 1.2 miles Calm Calm - N/A   Clear
6:18 AM 62.6 °F 62.6 °F 100% 30.12 in 1.2 miles Calm Calm - N/A   Partly Cloudy
6:19 AM 62.6 °F 62.6 °F 100% 30.12 in 1.2 miles Calm Calm - N/A   Partly Cloudy
6:20 AM 62.6 °F 62.6 °F 100% 30.12 in 1.5 miles Calm Calm - N/A   Partly Cloudy
6:21 AM 62.6 °F 62.6 °F 100% 30.12 in 1.8 miles Calm Calm - N/A   Partly Cloudy
6:22 AM 62.6 °F 62.6 °F 100% 30.12 in 2.0 miles Calm Calm - N/A   Partly Cloudy
6:23 AM 62.6 °F 62.6 °F 100% 30.12 in 3.0 miles Calm Calm - N/A   Partly Cloudy
6:55 AM 60.8 °F 60.6 °F 99% 30.13 in 10.0 miles Calm Calm - N/A   Clear
7:10 AM 60.8 °F 60.8 °F 100% 30.13 in 0.2 miles Calm Calm - N/A Fog Fog
7:28 AM 62.6 °F 62.6 °F 100% 30.14 in 1.5 miles Calm Calm - N/A   Clear
7:29 AM 62.6 °F 62.6 °F 100% 30.14 in 1.0 miles Calm Calm - N/A   Mist
7:31 AM 62.6 °F 62.6 °F 100% 30.15 in 0.8 miles Calm Calm - N/A   Mist
7:35 AM 62.6 °F 62.6 °F 100% 30.14 in 0.5 miles Calm Calm - N/A Fog Fog
7:47 AM 62.6 °F 62.6 °F 100% 30.15 in 0.8 miles Calm Calm - N/A   Mist
7:48 AM 62.6 °F 62.6 °F 100% 30.15 in 1.0 miles Calm Calm - N/A   Mist
7:49 AM 62.6 °F 62.6 °F 100% 30.15 in 1.5 miles Calm Calm - N/A   Partly Cloudy
7:50 AM 62.6 °F 62.6 °F 100% 30.15 in 2.5 miles Calm Calm - N/A   Partly Cloudy
7:51 AM 64.4 °F 64.4 °F 100% 30.15 in 4.0 miles Calm Calm - N/A   Partly Cloudy
7:55 AM 64.0 °F 64.0 °F 100% 30.15 in 10.0 miles NNE 4.6 mph - N/A   Scattered Clouds
8:01 AM 64.4 °F 64.4 °F 100% 30.15 in 9.0 miles NNE 3.5 mph - N/A   Mostly Cloudy
8:05 AM 64.4 °F 64.4 °F 100% 30.15 in 8.0 miles Calm Calm - N/A   Scattered Clouds
8:07 AM 64.4 °F 64.4 °F 100% 30.15 in 4.0 miles NE 3.5 mph - N/A   Mostly Cloudy
8:17 AM 66.2 °F 66.2 °F 100% 30.15 in 10.0 miles NNE 3.5 mph - N/A   Mostly Cloudy
8:46 AM 68.0 °F 68.0 °F 100% 30.15 in 10.0 miles Calm Calm - N/A   Scattered Clouds
8:55 AM 68.7 °F 68.7 °F 100% 30.15 in 10.0 miles Calm Calm - N/A   Partly Cloudy
9:55 AM 75.6 °F 67.6 °F 76% 30.16 in 10.0 miles Calm Calm - N/A   Clear
10:55 AM 77.7 °F 65.3 °F 65% 30.17 in 10.0 miles SE 8.1 mph - N/A   Partly Cloudy
11:55 AM 81.9 °F 61.5 °F 50% 30.15 in 10.0 miles SW 5.8 mph - N/A   Partly Cloudy
12:55 PM 82.4 °F 62.1 °F 50% 30.14 in 10.0 miles Calm Calm - N/A   Mostly Cloudy
1:55 PM 84.4 °F 62.1 °F 47% 30.12 in 10.0 miles Calm Calm - N/A   Scattered Clouds
2:55 PM 85.3 °F 62.2 °F 46% 30.11 in 10.0 miles SSE 5.8 mph - N/A   Scattered Clouds
3:55 PM 85.1 °F 67.1 °F 55% 30.09 in 10.0 miles East 12.7 mph - N/A   Scattered Clouds
4:55 PM 83.8 °F 67.3 °F 57% 30.08 in 10.0 miles SE 11.5 mph - N/A   Clear
5:55 PM 81.9 °F 66.6 °F 60% 30.09 in 10.0 miles East 12.7 mph - N/A   Clear
6:55 PM 79.2 °F 64.2 °F 60% 30.09 in 10.0 miles ESE 9.2 mph - N/A   Clear
7:55 PM 75.7 °F 64.8 °F 69% 30.10 in 10.0 miles SE 5.8 mph - N/A   Clear
8:55 PM 73.0 °F 65.8 °F 78% 30.11 in 10.0 miles SE 4.6 mph - N/A   Clear
9:55 PM 69.6 °F 65.5 °F 87% 30.12 in 10.0 miles Calm Calm - N/A   Clear
10:55 PM 68.7 °F 66.2 °F 92% 30.12 in 10.0 miles Calm Calm - N/A   Clear
11:55 PM 69.8 °F 67.3 °F 92% 30.11 in 10.0 miles SE 3.5 mph - N/A   Clear

Astronomy

Sunrise: 06:38 AM (EDT) Moon Rise: 05:38 PM (EDT) 5 / 3
Sunset: 08:08 PM (EDT) Moon Set: 04:31 AM (EDT) 5 / 3
Moon Phase
May. 03 May. 06 May. 12 May. 20 May. 28

Powered by the Weather Underground, Inc.